Location: *
(49.0997°N, 3.0450°E)
Time: 23:14:36
(UTC+00:00)

Daily predictions for brighter satellites

Satellite Brightness Start Highest point End
(mag) Time Altitude Azimuth Time Altitude Azimuth Time Altitude Azimuth
Meteor 2-4 Rocket 4.0 19:12:51 10° N 19:18:01 46° ENE 19:23:09 10° SE
SJ-6B 2.9 19:14:52 10° SSE 19:18:51 79° ENE 19:22:58 10° N
SJ-11-01 4.4 19:17:35 10° SSE 19:22:18 83° WSW 19:27:05 10° NNW
Okean 3 3.5 19:18:54 10° N 19:23:04 60° ENE 19:27:13 10° SSE
Shenzhou-11 Module 3.4 19:27:28 10° SW 19:29:41 21° S 19:31:46 11° ESE
TSX-5 3.6 19:27:21 10° NNW 19:30:49 82° ENE 19:35:01 10° SSE
Cosmos 1656 4.0 19:25:22 10° NNW 19:30:57 53° NE 19:36:26 10° SE
Cosmos 1536 4.2 19:29:50 10° SE 19:32:51 20° E 19:35:53 10° NE
Cosmos 1553 Rocket 4.1 19:27:04 10° S 19:33:12 58° E 19:39:28 10° NNE
Cosmos 1515 3.8 19:37:09 10° N 19:40:56 57° ENE 19:44:40 10° SSE
ADEOS Rocket 3.4 19:35:26 10° NNE 19:41:18 47° E 19:47:45 10° S
Cosmos 2112 Rocket 4.0 19:37:09 10° NNW 19:42:26 81° ENE 19:47:38 10° SSE
Cosmos 1833 Rocket 3.7 19:38:02 10° SSE 19:42:27 24° ESE 19:46:54 10° NE
SPOT 3 Rocket 4.0 19:37:49 10° S 19:42:58 66° WSW 19:48:07 10° NNW
Cosmos 1417 Rocket 4.4 19:39:16 10° S 19:45:20 70° E 19:51:26 10° NNE
BREEZE-M DEB (TANK) 3.1 19:43:32 10° WSW 19:47:29 86° SSE 19:54:20 10° ENE
Cosmos 2082 Rocket 3.4 19:45:18 10° SE 19:49:14 20° E 19:53:13 10° NE
USA 186 3.4 19:47:42 10° SSW 19:50:00 28° W 19:52:27 10° NNW
Cosmos 1709 Rocket 4.5 19:46:00 10° N 19:51:48 42° ENE 19:57:05 12° SE
Cosmos 2278 4.3 19:47:29 10° NNW 19:52:54 43° NE 19:57:20 15° ESE
GP-B 3.8 19:49:24 10° NNE 19:53:28 34° E 19:56:55 13° SE
Cosmos 1697 Rocket 3.1 19:49:32 10° NNW 19:55:05 51° NE 19:59:36 15° SE
MetOp-A 4.1 19:51:41 10° SSE 19:57:00 74° ENE 20:02:23 10° NNW
SL-16 R/B 4.2 19:54:40 10° N 19:58:16 17° NE 20:01:52 10° ENE
Cosmos 1666 4.2 19:57:53 16° ESE 19:59:01 19° E 20:01:42 10° NE
CZ-2C R/B 3.7 19:55:12 10° NE 19:59:32 25° E 20:02:40 15° SE
S3M 4.0 19:53:38 10° S 19:59:52 72° E 20:06:03 10° NNE
USA 229 DEB 4.2 19:52:58 10° NW 20:00:01 57° NE 20:06:07 15° ESE
USA 229 4.2 19:53:04 10° NW 20:00:07 56° NE 20:06:13 15° ESE
Resurs 1-3 3.8 19:58:54 10° S 20:03:17 76° WSW 20:07:41 10° NNW
Cosmos 1908 Rocket 3.9 20:02:22 10° SSE 20:06:38 45° E 20:10:54 10° NNE
Meteor 1-11 Rocket 3.9 20:01:12 10° S 20:07:02 62° E 20:12:57 10° NNE
SJ 16-02 1.8 20:03:31 10° S 20:07:38 40° ESE 20:11:48 10° NE
Meteor 1-5 Rocket 4.2 20:04:03 10° S 20:09:43 70° E 20:15:13 10° NNE
Cosmos 1900 4.3 20:06:09 10° NW 20:11:13 82° NE 20:14:43 20° SE
Cosmos 1745 Rocket 4.0 20:05:41 10° N 20:11:50 82° W 20:17:58 10° S
Cosmos 1898 Rocket 3.5 20:06:41 10° S 20:11:53 64° ESE 20:17:04 10° NNE
Terra 3.6 20:10:05 13° E 20:12:18 18° ENE 20:15:24 10° NNE
Cosmos 2360 Rocket 4.5 20:10:16 10° N 20:12:28 12° NNE 20:14:40 10° NE
Cosmos 2315 Rocket 4.4 20:08:23 10° SSE 20:14:22 45° E 20:20:20 10° NNE
Cosmos 1980 Rocket 2.7 20:14:00 10° NNW 20:19:25 45° NE 20:22:50 21° ESE
USA 267 3.6 20:12:56 10° NE 20:19:28 71° NNW 20:25:58 10° WSW
Cosmos 1680 Rocket 4.5 20:14:43 10° NW 20:19:42 44° WSW 20:24:37 10° S
CZ-2C R/B 2.9 20:15:26 12° SSE 20:19:55 83° WSW 20:24:49 10° NNW
ASTEX 1 3.3 20:15:45 10° N 20:20:42 71° E 20:25:37 10° S
ARGOS 3.9 20:16:07 10° S 20:21:19 51° W 20:26:34 10° NNW
ERS-1 Rocket 3.7 20:18:46 21° ESE 20:21:27 36° ENE 20:26:01 10° N
Geosat 4.4 20:19:39 21° ESE 20:22:45 51° NE 20:27:37 10° NNW
H-2A R/B 3.1 20:20:57 10° S 20:25:41 42° W 20:30:23 10° NNW
Uosat 12 SS-18 rocket 4.5 20:21:10 10° NW 20:27:00 75° NE 20:29:46 26° SE
SL-08 RB Rocket 4.4 20:23:02 10° S 20:27:28 53° W 20:32:01 10° NNW
Meteor 2-14 Rocket 4.5 20:24:31 10° N 20:30:41 87° W 20:36:11 13° S
Iridium 2 3.5 20:29:49 19° S 20:32:26 79° E 20:36:14 10° N
COSMOS 2406 3.5 20:27:56 10° SW 20:33:37 72° WNW 20:39:22 10° NNE
Abrixas rocket 1.9 20:32:31 10° W 20:35:36 79° S 20:36:17 50° ESE
Cosmos 1500 3.5 20:32:20 10° SSW 20:36:11 69° W 20:40:02 10° N
Cosmos 1867 4.5 20:31:45 10° NNW 20:36:55 39° NE 20:39:59 21° E
Cosmos 1378 Rocket 4.2 20:33:29 10° NNW 20:37:50 56° W 20:41:39 13° S
Sich 1 Rocket 3.9 20:36:06 29° SSE 20:37:57 45° E 20:42:14 10° NNE
Meteor 1-23 Rocket 4.2 20:34:41 10° NNW 20:40:26 88° WSW 20:44:27 20° S
Cosmos 158 Rocket 4.4 20:35:30 10° NNW 20:40:45 62° WSW 20:44:35 19° S
Resurs 01 Rocket 2.8 20:37:35 10° SSW 20:41:44 40° W 20:45:55 10° NNW
Cosmos 2369 3.8 20:36:18 10° NNW 20:41:57 72° WSW 20:45:32 23° SSE
Cosmos 1975 4.3 20:43:11 21° ENE 20:43:11 21° ENE 20:45:49 10° NE
Cosmos 1782 Rocket 3.5 20:43:21 27° S 20:45:41 64° E 20:50:03 10° NNE
SPOT 5 3.2 20:46:29 33° ESE 20:47:42 41° ENE 20:51:49 10° N
Cosmos 2098 Rocket 3.9 20:45:40 10° NNW 20:50:21 64° W 20:55:19 15° S
Cosmos 1340 2.6 20:49:56 47° SSE 20:50:42 59° E 20:54:25 10° NNE
Cosmos 990 Rocket 4.3 20:45:59 10° SSW 20:51:11 70° WNW 20:56:23 10° NNE
NOSS 3-1 (C) 4.0 20:44:47 10° NW 20:52:12 84° NE 20:57:08 28° SE
Aureole 3 Rocket 3.7 20:50:27 10° SSW 20:53:40 38° WNW 20:56:34 10° N
Cosmos 1937 Rocket 3.6 20:49:00 10° SSW 20:54:19 81° WNW 20:59:41 10° NNE
Spot 2 Rocket 4.0 20:50:56 18° S 20:54:39 57° W 20:59:41 10° NNW
USA 234 4.3 20:51:14 18° S 20:55:28 35° SW 21:01:24 10° WNW
Cosmos 1346 Rocket 2.5 20:55:44 41° S 20:57:00 78° E 21:00:53 10° NNE
Cosmos 372 Rocket 4.2 20:57:46 36° SSE 20:59:15 46° ESE 21:04:15 10° NNE
USA 245 4.2 21:00:10 28° S 21:02:56 76° WSW 21:08:57 10° NNW
BREEZE-M DEB (TANK) 4.2 21:04:56 10° W 21:05:38 16° WSW 21:05:38 16° WSW
Cosmos 2151 Rocket 4.4 21:07:25 34° E 21:07:25 34° E 21:11:14 10° NNE
Cosmos 1975 Rocket 3.3 21:04:04 10° NNW 21:08:29 67° W 21:10:16 35° SSW
Cosmos 1536 4.2 21:05:11 10° SW 21:09:01 39° WNW 21:12:52 10° N
CZ-4C R/B 3.8 21:11:28 18° E 21:11:28 18° E 21:13:41 10° ENE
Cosmos 2322 Rocket 3.2 21:05:04 10° NNW 21:10:12 35° NE 21:12:15 27° E
EO 1 Del DPAF 3.0 21:09:39 10° NNE 21:13:27 70° ESE 21:13:29 70° ESE
IGS 5A 3.4 21:14:56 58° S 21:15:45 86° WSW 21:19:55 10° NNW
STPSAT 2 (USA 217) 4.4 21:15:41 42° SSW 21:17:11 78° ESE 21:21:42 10° NNE
Cosmos 405 3.9 21:14:19 10° N 21:17:11 38° NE 21:17:11 38° NE
Cosmos 2360 4.4 21:13:18 10° NNW 21:18:56 64° WSW 21:21:09 37° S
Landsat 7 3.9 21:17:23 42° S 21:18:57 75° WSW 21:23:45 10° NNW
SPOT 1/Viking Rocket 3.6 21:18:51 38° S 21:20:52 75° WSW 21:26:08 10° NNW
Cosmos 1743 2.6 21:24:47 80° NE 21:24:47 80° NE 21:28:28 10° N
Mayak 1.1 21:22:20 10° NE 21:23:04 12° ENE 21:23:04 12° ENE
Cosmos 1833 Rocket 3.1 21:20:21 10° SW 21:25:56 63° WNW 21:31:34 10° NNE
Cosmos 2150 Rocket 3.9 21:24:02 29° SSW 21:26:44 89° ESE 21:32:00 10° NNE
Cosmos 1300 Rocket 3.8 21:29:27 54° ENE 21:29:27 54° ENE 21:33:25 10° NNE
CARTOSAT-1 3.5 21:29:29 67° S 21:30:02 83° W 21:34:23 10° NNW
USA 32 4.5 21:24:59 10° NNW 21:30:08 58° W 21:32:25 32° SSW
Cosmos 2298 Rocket 4.1 21:28:08 20° SSW 21:31:55 78° WNW 21:37:17 10° NNE
Cosmos 2082 Rocket 2.3 21:27:02 10° SSW 21:32:41 76° WNW 21:38:24 10° NNE
Cosmos 1666 4.0 21:32:45 26° WSW 21:34:20 38° WNW 21:37:57 10° N
Nadezhda 1 Rocket 4.0 21:34:45 48° SE 21:36:03 57° E 21:42:01 10° NNE
Cosmos 2154 Rocket 4.1 21:30:19 10° N 21:36:33 63° ENE 21:38:05 48° SE
Cosmos 1697 Rocket 4.0 21:33:55 10° NW 21:38:50 31° WSW 21:41:20 22° SSW
CZ-2C R/B 3.2 21:34:58 10° N 21:40:08 54° WNW 21:44:10 17° SW
SL-24 R/B 3.9 21:36:49 10° NNE 21:40:11 66° N 21:40:11 66° N
Meteor 2-9 Rocket 4.4 21:40:40 53° SE 21:41:29 58° E 21:47:14 10° NNE
SL-16 R/B 2.3 21:37:55 10° NNW 21:43:35 62° ENE 21:44:41 52° ESE
APEX 3.9 21:38:53 10° NNW 21:44:08 55° NE 21:44:25 54° ENE
SJ 16-02 3.5 21:42:37 10° WSW 21:46:22 26° WNW 21:50:08 10° N
Cosmos 2074 Rocket 4.1 21:41:04 10° NNW 21:47:21 71° W 21:49:36 41° SSW
Terra 1.8 21:48:59 67° SSW 21:49:29 75° WSW 21:54:17 10° NNW
USA 229 DEB 4.4 21:44:07 10° NW 21:50:59 47° WSW 21:53:33 35° SSW
USA 229 4.4 21:44:13 10° NW 21:51:06 47° WSW 21:53:39 35° SSW
Cosmos 1048 Rocket 4.2 21:46:14 10° NNW 21:51:15 58° WSW 21:52:04 51° SW
ARGOS Delta rocket 4.4 21:51:10 50° E 21:51:42 53° ENE 21:57:02 10° N
NOSS 3-1 (A) 4.1 21:47:13 10° NW 21:54:39 70° SW 21:57:30 44° SSE
Cosmos 2184 Rocket 4.2 21:50:25 10° NNW 21:56:31 63° W 21:58:32 42° SSW
Cosmos 1025 Rocket 3.1 21:53:17 10° NNW 21:57:24 75° NW 21:57:24 75° NW
Cosmos 1536 Rocket 3.7 21:53:36 10° NNW 21:57:58 66° W 21:57:58 66° W
Cosmos 2360 Rocket 3.0 21:52:52 10° NNW 21:58:11 39° NE 21:59:18 36° ENE
Cosmos 1842 3.8 21:56:17 10° NNW 21:59:35 57° NW 21:59:35 57° NW
ERS-1 Rocket 4.2 21:58:46 29° SW 22:00:15 35° W 22:04:51 10° NNW
Okean 2 Rocket 3.9 22:00:06 41° WSW 22:00:56 47° WNW 22:05:14 10° N
USA 267 4.2 21:55:51 10° ENE 22:02:01 46° N 22:08:12 10° WNW
Cosmos 2219 Rocket 4.1 21:58:24 10° N 22:02:29 20° NE 22:04:59 15° ENE
Cosmos 1980 Rocket 3.2 21:58:15 10° NW 22:03:19 35° WSW 22:04:36 31° SW
Thor Agena Rocket 4.0 22:01:33 10° N 22:06:40 60° WNW 22:08:22 40° SW
Cosmos 1707 4.1 22:04:29 10° N 22:06:57 33° NNE 22:06:57 33° NNE
MOS 1 Rocket 3.8 22:03:50 10° N 22:09:13 68° WNW 22:10:35 49° SW
IRAS Rocket 4.1 22:09:32 68° ESE 22:10:06 74° ENE 22:15:42 10° NNW
Cosmos 1378 4.4 22:08:01 10° NNW 22:10:50 38° WNW 22:10:50 38° WNW
Meteor 1-21 4.4 22:09:15 10° NNW 22:14:48 60° W 22:15:39 54° SW
Cosmos 1269 Rocket 4.0 22:09:33 10° NNW 22:14:51 72° WSW 22:15:01 71° SW
FALCON 9 R/B 4.3 21:59:39 10° WSW 22:16:09 33° SSW 22:16:09 33° SSW
Cosmos 1125 Rocket 3.7 22:16:01 58° WSW 22:16:54 70° WNW 22:22:10 10° NNE
SL-27 R/B 4.1 22:18:02 34° NW 22:18:02 34° NW 22:20:48 10° N
Cosmos 2366 rocket 4.5 22:11:28 10° N 22:17:27 45° ENE 22:18:08 44° E
Cosmos 1295 Rocket 4.4 22:11:34 10° N 22:17:57 90° E 22:18:54 67° S
Cosmos 1975 4.1 22:18:56 35° WNW 22:19:00 35° WNW 22:22:42 10° N
Cosmos 1867 4.0 22:15:24 10° NW 22:20:37 49° WSW 22:20:37 49° WSW
Cosmos 494 Rocket 4.2 22:16:28 10° NNW 22:21:30 60° WSW 22:21:30 60° WSW
Cosmos 2341 Rocket 3.9 22:15:58 10° N 22:22:22 81° E 22:23:10 69° SSE
SPOT 5 4.4 22:25:43 23° W 22:25:59 23° W 22:29:28 10° NW
Lacrosse 4 Rocket 2.9 22:22:47 10° NNW 22:26:03 30° NNE 22:26:03 30° NNE
ALOS 2 3.9 22:29:02 33° NE 22:29:02 33° NE 22:32:17 10° N
Spot 4 4.0 22:32:19 71° N 22:32:19 71° N 22:36:38 10° NNW
Cosmos 2322 4.3 22:29:18 10° NNW 22:34:50 46° NE 22:35:28 44° ENE
ATLAS 2AS CENTAUR R/B 4.1 22:36:03 10° NW 22:43:21 38° NNE 22:49:22 14° E
SL-8 Rocket 3.8 22:37:36 10° N 22:43:57 84° E 22:44:21 78° SE
Meteor 2-17 Rocket 4.3 22:41:41 10° N 22:47:52 89° W 22:48:08 83° S
Cosmos 2181 Rocket 3.8 22:49:11 80° ESE 22:49:18 81° E 22:55:29 10° N
Cosmos 864 Rocket 4.4 22:43:27 10° N 22:49:36 71° E 22:49:46 71° E
Helios 1A 4.2 22:53:57 41° NW 22:53:57 41° NW 22:56:48 10° NNW
Cosmos 2322 Rocket 2.7 22:49:02 10° NW 22:54:03 47° W 22:54:03 47° W
CZ-4C R/B 2.3 22:56:35 68° WNW 22:57:00 72° NW 23:03:15 10° NE
Cosmos 2333 Rocket 3.0 22:55:13 10° NNW 23:00:36 42° NE 23:01:12 41° ENE
Mayak 0.0 22:56:44 10° N 22:59:38 40° NNW 22:59:38 40° NNW
Okean 1 Rocket 4.3 23:02:04 37° NW 23:02:04 37° NW 23:05:29 10° N
Nimbus 7 Rocket 4.3 22:55:59 10° NNE 23:02:07 86° WNW 23:02:21 83° SW
Meteor 1-15 Rocket 4.2 23:03:37 76° NNE 23:03:37 76° NNE 23:08:51 10° NNE
Cosmos 2251 Rocket 3.7 22:58:52 10° NNW 23:03:36 70° NNW 23:03:36 70° NNW
Cosmos 1455 Rocket 4.4 23:07:24 35° NNE 23:07:24 35° NNE 23:10:02 10° NNE
Cosmos 1959 Rocket 4.4 23:04:48 10° NNW 23:10:57 77° W 23:10:59 77° W
Aureole 1 Rocket 4.0 23:11:33 10° NNW 23:19:30 84° WSW 23:19:54 79° SSW
Cosmos 2218 Rocket 4.1 23:15:46 10° NNW 23:22:04 64° W 23:22:17 64° WSW
SL-16 R/B 3.8 23:22:44 10° NW 23:26:32 24° W 23:26:32 24° W
Meteor 1-24 Rocket 3.8 23:30:49 10° NNW 23:35:26 67° N 23:35:26 67° N
Cosmos 2227 Rocket 4.5 23:40:16 12° E 23:40:16 12° E 23:41:42 10° ENE
Nadezhda 3 Rocket 4.1 23:39:39 63° E 23:39:39 63° E 23:45:28 10° NNE
Cosmos 2360 Rocket 3.2 23:36:57 10° NW 23:41:03 37° WNW 23:41:03 37° WNW
COSMOS 2455 2.8 23:37:43 10° NW 23:43:30 80° N 23:43:30 80° N
USA 267 4.0 23:38:07 10° E 23:44:24 51° NNE 23:50:41 10° WNW
Cosmos 2219 Rocket 2.3 23:41:42 10° NNW 23:46:41 70° N 23:46:41 70° N
Cosmos 1140 Rocket 4.5 23:42:38 10° NNW 23:47:34 39° ENE 23:47:42 39° ENE
COSMOS 2428 2.8 23:46:22 10° NNW 23:51:22 70° NNW 23:51:22 70° NNW
Cosmos 407 Rocket 4.0 23:47:14 10° NNW 23:51:48 55° NNE 23:51:48 55° NNE
Cosmos 2297 Rocket 4.1 23:55:27 17° E 23:55:27 17° E 23:58:16 10° ENE
